Tracking 30058 objects as of 10-Dec-2024
HD Live streaming from Space Station
objects crossing your sky now

STARLINK-30128

Track STARLINK-30128 now!
10-day predictions
STARLINK-30128 is classified as:


NORAD ID: 56832
Int'l Code: 2023-079K
Perigee: 565.4 km
Apogee: 567.2 km
Inclination: 43.0 °
Period: 95.8 minutes
Semi major axis: 6937 km
RCS: Unknown
Launch date: June 4, 2023
Source: United States (US)
Launch site: AIR FORCE EASTERN TEST RANGE (AFETR)
Your satellite tracking list
Your tracking list is empty




NASA's NSSDC Master Catalog

Two Line Element Set (TLE):
1 56832U 23079K   24345.14168555  .00005990  00000-0  45829-3 0  9992
2 56832  43.0043  31.2633 0001293 270.6222  89.4472 15.02518772 84479
Source of the keplerian elements: AFSPC